owner,sensor,date,latitude,longitude,vertical_datum,sea_water_temperature,qcFlag 
ENP,ioos.station.NOAA.NDBC:HCEF1:1,2019-03-01T02:00:00Z,25.2540,-80.4440,1.0,28.55,11111222 
ENP,ioos.station.NOAA.NDBC:HCEF1:1,2019-03-01T04:00:00Z,25.2540,-80.4440,1.0,28.16,11111222 
ENP,ioos.station.NOAA.NDBC:HCEF1:1,2019-03-01T05:00:00Z,25.2540,-80.4440,1.0,27.98,11111222 
ENP,ioos.station.NOAA.NDBC:HCEF1:1,2019-03-01T06:00:00Z,25.2540,-80.4440,1.0,27.81,11111222 
ENP,ioos.station.NOAA.NDBC:HCEF1:1,2019-03-01T07:00:00Z,25.2540,-80.4440,1.0,27.64,11111222 
ENP,ioos.station.NOAA.NDBC:HCEF1:1,2019-03-01T08:00:00Z,25.2540,-80.4440,1.0,27.28,11111222 
ENP,ioos.station.NOAA.NDBC:HCEF1:1,2019-03-01T09:00:00Z,25.2540,-80.4440,1.0,27.04,11111222 
ENP,ioos.station.NOAA.NDBC:HCEF1:1,2019-03-01T10:00:00Z,25.2540,-80.4440,1.0,26.91,11111222 
ENP,ioos.station.NOAA.NDBC:HCEF1:1,2019-03-01T11:00:00Z,25.2540,-80.4440,1.0,26.73,11111222 
ENP,ioos.station.NOAA.NDBC:HCEF1:1,2019-03-01T12:00:00Z,25.2540,-80.4440,1.0,26.46,11111222 
ENP,ioos.station.NOAA.NDBC:HCEF1:1,2019-03-01T13:00:00Z,25.2540,-80.4440,1.0,26.28,11111222 
ENP,ioos.station.NOAA.NDBC:HCEF1:1,2019-03-01T14:00:00Z,25.2540,-80.4440,1.0,26.23,11111222 
ENP,ioos.station.NOAA.NDBC:HCEF1:1,2019-03-01T15:00:00Z,25.2540,-80.4440,1.0,26.38,11111222 
ENP,ioos.station.NOAA.NDBC:HCEF1:1,2019-03-01T16:00:00Z,25.2540,-80.4440,1.0,26.71,11111222 
ENP,ioos.station.NOAA.NDBC:HCEF1:1,2019-03-01T17:00:00Z,25.2540,-80.4440,1.0,27.25,11111222 
ENP,ioos.station.NOAA.NDBC:HCEF1:1,2019-03-01T18:00:00Z,25.2540,-80.4440,1.0,27.82,11111222 
ENP,ioos.station.NOAA.NDBC:HCEF1:1,2019-03-01T19:00:00Z,25.2540,-80.4440,1.0,28.32,11111222 
ENP,ioos.station.NOAA.NDBC:HCEF1:1,2019-03-01T20:00:00Z,25.2540,-80.4440,1.0,28.77,11111222 
ENP,ioos.station.NOAA.NDBC:HCEF1:1,2019-03-01T21:00:00Z,25.2540,-80.4440,1.0,29.04,11111222 
ENP,ioos.station.NOAA.NDBC:HCEF1:1,2019-03-01T22:00:00Z,25.2540,-80.4440,1.0,29.24,11111222 
ENP,ioos.station.NOAA.NDBC:HCEF1:1,2019-03-01T23:00:00Z,25.2540,-80.4440,1.0,29.27,11111222 
ENP,ioos.station.NOAA.NDBC:HCEF1:1,2019-03-02T00:00:00Z,25.2540,-80.4440,1.0,29.14,11111222 
ENP,ioos.station.NOAA.NDBC:HCEF1:1,2019-03-02T02:00:00Z,25.2540,-80.4440,1.0,28.39,11111222 
ENP,ioos.station.NOAA.NDBC:HCEF1:1,2019-03-02T04:00:00Z,25.2540,-80.4440,1.0,27.89,11111222 
ENP,ioos.station.NOAA.NDBC:HCEF1:1,2019-03-02T05:00:00Z,25.2540,-80.4440,1.0,27.64,11111222 
ENP,ioos.station.NOAA.NDBC:HCEF1:1,2019-03-02T06:00:00Z,25.2540,-80.4440,1.0,27.48,11111222 
ENP,ioos.station.NOAA.NDBC:HCEF1:1,2019-03-02T07:00:00Z,25.2540,-80.4440,1.0,27.35,11111222 
ENP,ioos.station.NOAA.NDBC:HCEF1:1,2019-03-02T08:00:00Z,25.2540,-80.4440,1.0,27.23,11111222 
ENP,ioos.station.NOAA.NDBC:HCEF1:1,2019-03-02T09:00:00Z,25.2540,-80.4440,1.0,26.96,11111222 
ENP,ioos.station.NOAA.NDBC:HCEF1:1,2019-03-02T10:00:00Z,25.2540,-80.4440,1.0,26.69,11111222 
ENP,ioos.station.NOAA.NDBC:HCEF1:1,2019-03-02T11:00:00Z,25.2540,-80.4440,1.0,26.34,11111222 
ENP,ioos.station.NOAA.NDBC:HCEF1:1,2019-03-02T12:00:00Z,25.2540,-80.4440,1.0,26.17,11111222 
ENP,ioos.station.NOAA.NDBC:HCEF1:1,2019-03-02T13:00:00Z,25.2540,-80.4440,1.0,26.17,11111222 
ENP,ioos.station.NOAA.NDBC:HCEF1:1,2019-03-02T14:00:00Z,25.2540,-80.4440,1.0,26.07,11111222 
ENP,ioos.station.NOAA.NDBC:HCEF1:1,2019-03-02T15:00:00Z,25.2540,-80.4440,1.0,26.15,11111222 
ENP,ioos.station.NOAA.NDBC:HCEF1:1,2019-03-02T16:00:00Z,25.2540,-80.4440,1.0,26.4,11111222 
ENP,ioos.station.NOAA.NDBC:HCEF1:1,2019-03-02T17:00:00Z,25.2540,-80.4440,1.0,26.81,11111222 
ENP,ioos.station.NOAA.NDBC:HCEF1:1,2019-03-02T18:00:00Z,25.2540,-80.4440,1.0,27.7,11111222 
ENP,ioos.station.NOAA.NDBC:HCEF1:1,2019-03-02T19:00:00Z,25.2540,-80.4440,1.0,28.25,11111222 
ENP,ioos.station.NOAA.NDBC:HCEF1:1,2019-03-02T20:00:00Z,25.2540,-80.4440,1.0,29.05,11111222 
ENP,ioos.station.NOAA.NDBC:HCEF1:1,2019-03-02T21:00:00Z,25.2540,-80.4440,1.0,29.51,11111222 
ENP,ioos.station.NOAA.NDBC:HCEF1:1,2019-03-02T22:00:00Z,25.2540,-80.4440,1.0,29.76,11111222 
ENP,ioos.station.NOAA.NDBC:HCEF1:1,2019-03-02T23:00:00Z,25.2540,-80.4440,1.0,29.77,11111222 
ENP,ioos.station.NOAA.NDBC:HCEF1:1,2019-03-03T00:00:00Z,25.2540,-80.4440,1.0,29.68,11111222 
ENP,ioos.station.NOAA.NDBC:HCEF1:1,2019-03-03T02:00:00Z,25.2540,-80.4440,1.0,29.25,11111222 
ENP,ioos.station.NOAA.NDBC:HCEF1:1,2019-03-03T04:00:00Z,25.2540,-80.4440,1.0,28.65,11111222 
ENP,ioos.station.NOAA.NDBC:HCEF1:1,2019-03-03T05:00:00Z,25.2540,-80.4440,1.0,28.46,11111222 
ENP,ioos.station.NOAA.NDBC:HCEF1:1,2019-03-03T06:00:00Z,25.2540,-80.4440,1.0,28.27,11111222 
ENP,ioos.station.NOAA.NDBC:HCEF1:1,2019-03-03T07:00:00Z,25.2540,-80.4440,1.0,28.1,11111222 
ENP,ioos.station.NOAA.NDBC:HCEF1:1,2019-03-03T08:00:00Z,25.2540,-80.4440,1.0,27.98,11111222 
ENP,ioos.station.NOAA.NDBC:HCEF1:1,2019-03-03T09:00:00Z,25.2540,-80.4440,1.0,27.83,11111222 
ENP,ioos.station.NOAA.NDBC:HCEF1:1,2019-03-03T10:00:00Z,25.2540,-80.4440,1.0,27.54,11111222 
ENP,ioos.station.NOAA.NDBC:HCEF1:1,2019-03-03T11:00:00Z,25.2540,-80.4440,1.0,27.29,11111222 
ENP,ioos.station.NOAA.NDBC:HCEF1:1,2019-03-03T12:00:00Z,25.2540,-80.4440,1.0,27.14,11111222 
ENP,ioos.station.NOAA.NDBC:HCEF1:1,2019-03-03T13:00:00Z,25.2540,-80.4440,1.0,27.05,11111222 
ENP,ioos.station.NOAA.NDBC:HCEF1:1,2019-03-03T14:00:00Z,25.2540,-80.4440,1.0,27.06,11111222 
ENP,ioos.station.NOAA.NDBC:HCEF1:1,2019-03-03T15:00:00Z,25.2540,-80.4440,1.0,27.18,11111222 
ENP,ioos.station.NOAA.NDBC:HCEF1:1,2019-03-03T16:00:00Z,25.2540,-80.4440,1.0,27.55,11111222 
ENP,ioos.station.NOAA.NDBC:HCEF1:1,2019-03-03T17:00:00Z,25.2540,-80.4440,1.0,27.97,11111222 
ENP,ioos.station.NOAA.NDBC:HCEF1:1,2019-03-03T18:00:00Z,25.2540,-80.4440,1.0,28.42,11111222 
ENP,ioos.station.NOAA.NDBC:HCEF1:1,2019-03-03T19:00:00Z,25.2540,-80.4440,1.0,29.0,11111222 
ENP,ioos.station.NOAA.NDBC:HCEF1:1,2019-03-03T20:00:00Z,25.2540,-80.4440,1.0,29.39,11111222 
ENP,ioos.station.NOAA.NDBC:HCEF1:1,2019-03-03T21:00:00Z,25.2540,-80.4440,1.0,29.51,11111222 
ENP,ioos.station.NOAA.NDBC:HCEF1:1,2019-03-03T22:00:00Z,25.2540,-80.4440,1.0,29.55,11111222 
ENP,ioos.station.NOAA.NDBC:HCEF1:1,2019-03-03T23:00:00Z,25.2540,-80.4440,1.0,29.5,11111222 
ENP,ioos.station.NOAA.NDBC:HCEF1:1,2019-03-04T00:00:00Z,25.2540,-80.4440,1.0,29.23,11111222 
ENP,ioos.station.NOAA.NDBC:HCEF1:1,2019-03-04T02:00:00Z,25.2540,-80.4440,1.0,28.69,11111222 
ENP,ioos.station.NOAA.NDBC:HCEF1:1,2019-03-04T04:00:00Z,25.2540,-80.4440,1.0,28.46,11111222 
ENP,ioos.station.NOAA.NDBC:HCEF1:1,2019-03-04T05:00:00Z,25.2540,-80.4440,1.0,28.57,11111222 
ENP,ioos.station.NOAA.NDBC:HCEF1:1,2019-03-04T06:00:00Z,25.2540,-80.4440,1.0,28.53,11111222 
ENP,ioos.station.NOAA.NDBC:HCEF1:1,2019-03-04T07:00:00Z,25.2540,-80.4440,1.0,28.33,11111222 
ENP,ioos.station.NOAA.NDBC:HCEF1:1,2019-03-04T08:00:00Z,25.2540,-80.4440,1.0,28.03,11111222 
ENP,ioos.station.NOAA.NDBC:HCEF1:1,2019-03-04T09:00:00Z,25.2540,-80.4440,1.0,28.06,11111222 
ENP,ioos.station.NOAA.NDBC:HCEF1:1,2019-03-04T10:00:00Z,25.2540,-80.4440,1.0,27.72,11111222 
ENP,ioos.station.NOAA.NDBC:HCEF1:1,2019-03-04T11:00:00Z,25.2540,-80.4440,1.0,27.29,11111222 
ENP,ioos.station.NOAA.NDBC:HCEF1:1,2019-03-04T12:00:00Z,25.2540,-80.4440,1.0,27.21,11111222 
ENP,ioos.station.NOAA.NDBC:HCEF1:1,2019-03-04T13:00:00Z,25.2540,-80.4440,1.0,27.31,11111222 
ENP,ioos.station.NOAA.NDBC:HCEF1:1,2019-03-04T14:00:00Z,25.2540,-80.4440,1.0,27.29,11111222 
ENP,ioos.station.NOAA.NDBC:HCEF1:1,2019-03-04T15:00:00Z,25.2540,-80.4440,1.0,27.61,11111222 
ENP,ioos.station.NOAA.NDBC:HCEF1:1,2019-03-04T16:00:00Z,25.2540,-80.4440,1.0,27.71,11111222 
ENP,ioos.station.NOAA.NDBC:HCEF1:1,2019-03-04T17:00:00Z,25.2540,-80.4440,1.0,28.28,11111222 
ENP,ioos.station.NOAA.NDBC:HCEF1:1,2019-03-04T18:00:00Z,25.2540,-80.4440,1.0,28.82,11111222 
ENP,ioos.station.NOAA.NDBC:HCEF1:1,2019-03-04T19:00:00Z,25.2540,-80.4440,1.0,29.44,11111222 
ENP,ioos.station.NOAA.NDBC:HCEF1:1,2019-03-04T20:00:00Z,25.2540,-80.4440,1.0,29.7,11111222 
ENP,ioos.station.NOAA.NDBC:HCEF1:1,2019-03-04T21:00:00Z,25.2540,-80.4440,1.0,29.86,11111222 
ENP,ioos.station.NOAA.NDBC:HCEF1:1,2019-03-04T22:00:00Z,25.2540,-80.4440,1.0,29.92,11111222 
ENP,ioos.station.NOAA.NDBC:HCEF1:1,2019-03-04T23:00:00Z,25.2540,-80.4440,1.0,29.73,11111222 
ENP,ioos.station.NOAA.NDBC:HCEF1:1,2019-03-05T00:00:00Z,25.2540,-80.4440,1.0,29.54,11111222 
ENP,ioos.station.NOAA.NDBC:HCEF1:1,2019-03-05T01:00:00Z,25.2540,-80.4440,1.0,29.37,11111222 
ENP,ioos.station.NOAA.NDBC:HCEF1:1,2019-03-05T02:00:00Z,25.2540,-80.4440,1.0,29.08,11111222 
ENP,ioos.station.NOAA.NDBC:HCEF1:1,2019-03-05T04:00:00Z,25.2540,-80.4440,1.0,28.76,11111222 
ENP,ioos.station.NOAA.NDBC:HCEF1:1,2019-03-05T05:00:00Z,25.2540,-80.4440,1.0,28.76,11111222 
ENP,ioos.station.NOAA.NDBC:HCEF1:1,2019-03-05T06:00:00Z,25.2540,-80.4440,1.0,29.01,11111222 
ENP,ioos.station.NOAA.NDBC:HCEF1:1,2019-03-05T07:00:00Z,25.2540,-80.4440,1.0,29.04,11111222 
ENP,ioos.station.NOAA.NDBC:HCEF1:1,2019-03-05T08:00:00Z,25.2540,-80.4440,1.0,28.63,11111222 
ENP,ioos.station.NOAA.NDBC:HCEF1:1,2019-03-05T09:00:00Z,25.2540,-80.4440,1.0,28.39,11111222 
ENP,ioos.station.NOAA.NDBC:HCEF1:1,2019-03-05T10:00:00Z,25.2540,-80.4440,1.0,28.13,11111222 
ENP,ioos.station.NOAA.NDBC:HCEF1:1,2019-03-05T11:00:00Z,25.2540,-80.4440,1.0,27.66,11111222 
ENP,ioos.station.NOAA.NDBC:HCEF1:1,2019-03-05T12:00:00Z,25.2540,-80.4440,1.0,26.9,11111222 
ENP,ioos.station.NOAA.NDBC:HCEF1:1,2019-03-05T13:00:00Z,25.2540,-80.4440,1.0,26.54,11111222 
ENP,ioos.station.NOAA.NDBC:HCEF1:1,2019-03-05T14:00:00Z,25.2540,-80.4440,1.0,26.49,11111222 
ENP,ioos.station.NOAA.NDBC:HCEF1:1,2019-03-05T15:00:00Z,25.2540,-80.4440,1.0,26.78,11111222 
ENP,ioos.station.NOAA.NDBC:HCEF1:1,2019-03-05T16:00:00Z,25.2540,-80.4440,1.0,27.19,11111222 
ENP,ioos.station.NOAA.NDBC:HCEF1:1,2019-03-05T17:00:00Z,25.2540,-80.4440,1.0,27.96,11111222 
ENP,ioos.station.NOAA.NDBC:HCEF1:1,2019-03-05T18:00:00Z,25.2540,-80.4440,1.0,28.97,11111222 
ENP,ioos.station.NOAA.NDBC:HCEF1:1,2019-03-05T19:00:00Z,25.2540,-80.4440,1.0,29.33,11111222 
ENP,ioos.station.NOAA.NDBC:HCEF1:1,2019-03-05T21:00:00Z,25.2540,-80.4440,1.0,29.56,11111222 
ENP,ioos.station.NOAA.NDBC:HCEF1:1,2019-03-05T22:00:00Z,25.2540,-80.4440,1.0,29.52,11111222 
ENP,ioos.station.NOAA.NDBC:HCEF1:1,2019-03-05T23:00:00Z,25.2540,-80.4440,1.0,29.29,11111222 
ENP,ioos.station.NOAA.NDBC:HCEF1:1,2019-03-06T00:00:00Z,25.2540,-80.4440,1.0,28.93,11111222 
ENP,ioos.station.NOAA.NDBC:HCEF1:1,2019-03-06T01:00:00Z,25.2540,-80.4440,1.0,28.72,11111222 
ENP,ioos.station.NOAA.NDBC:HCEF1:1,2019-03-06T02:00:00Z,25.2540,-80.4440,1.0,28.39,11111222 
ENP,ioos.station.NOAA.NDBC:HCEF1:1,2019-03-06T04:00:00Z,25.2540,-80.4440,1.0,27.84,11111222 
ENP,ioos.station.NOAA.NDBC:HCEF1:1,2019-03-06T05:00:00Z,25.2540,-80.4440,1.0,27.42,11111222 
ENP,ioos.station.NOAA.NDBC:HCEF1:1,2019-03-06T06:00:00Z,25.2540,-80.4440,1.0,26.81,11111222 
ENP,ioos.station.NOAA.NDBC:HCEF1:1,2019-03-06T07:00:00Z,25.2540,-80.4440,1.0,26.36,11111222 
ENP,ioos.station.NOAA.NDBC:HCEF1:1,2019-03-06T08:00:00Z,25.2540,-80.4440,1.0,25.7,11111222 
ENP,ioos.station.NOAA.NDBC:HCEF1:1,2019-03-06T09:00:00Z,25.2540,-80.4440,1.0,25.1,11111222 
ENP,ioos.station.NOAA.NDBC:HCEF1:1,2019-03-06T10:00:00Z,25.2540,-80.4440,1.0,24.71,11111222 
ENP,ioos.station.NOAA.NDBC:HCEF1:1,2019-03-06T11:00:00Z,25.2540,-80.4440,1.0,24.19,11111222 
ENP,ioos.station.NOAA.NDBC:HCEF1:1,2019-03-06T12:00:00Z,25.2540,-80.4440,1.0,23.03,11111222 
ENP,ioos.station.NOAA.NDBC:HCEF1:1,2019-03-06T13:00:00Z,25.2540,-80.4440,1.0,22.37,11111222 
ENP,ioos.station.NOAA.NDBC:HCEF1:1,2019-03-06T14:00:00Z,25.2540,-80.4440,1.0,21.97,11111222 
ENP,ioos.station.NOAA.NDBC:HCEF1:1,2019-03-06T15:00:00Z,25.2540,-80.4440,1.0,22.09,11111222 
ENP,ioos.station.NOAA.NDBC:HCEF1:1,2019-03-06T16:00:00Z,25.2540,-80.4440,1.0,22.31,11111222 
ENP,ioos.station.NOAA.NDBC:HCEF1:1,2019-03-06T17:00:00Z,25.2540,-80.4440,1.0,22.62,11111222 
ENP,ioos.station.NOAA.NDBC:HCEF1:1,2019-03-06T18:00:00Z,25.2540,-80.4440,1.0,23.12,11111222 
ENP,ioos.station.NOAA.NDBC:HCEF1:1,2019-03-06T19:00:00Z,25.2540,-80.4440,1.0,23.74,11111222 
ENP,ioos.station.NOAA.NDBC:HCEF1:1,2019-03-06T20:00:00Z,25.2540,-80.4440,1.0,23.97,11111222 
ENP,ioos.station.NOAA.NDBC:HCEF1:1,2019-03-06T21:00:00Z,25.2540,-80.4440,1.0,24.45,11111222 
ENP,ioos.station.NOAA.NDBC:HCEF1:1,2019-03-06T22:00:00Z,25.2540,-80.4440,1.0,24.52,11111222 
ENP,ioos.station.NOAA.NDBC:HCEF1:1,2019-03-06T23:00:00Z,25.2540,-80.4440,1.0,24.41,11111222 
ENP,ioos.station.NOAA.NDBC:HCEF1:1,2019-03-07T00:00:00Z,25.2540,-80.4440,1.0,24.08,11111222 
ENP,ioos.station.NOAA.NDBC:HCEF1:1,2019-03-07T01:00:00Z,25.2540,-80.4440,1.0,23.68,11111222 
ENP,ioos.station.NOAA.NDBC:HCEF1:1,2019-03-07T02:00:00Z,25.2540,-80.4440,1.0,23.34,11111222 
ENP,ioos.station.NOAA.NDBC:HCEF1:1,2019-03-07T04:00:00Z,25.2540,-80.4440,1.0,22.68,11111222 
ENP,ioos.station.NOAA.NDBC:HCEF1:1,2019-03-07T05:00:00Z,25.2540,-80.4440,1.0,22.55,11111222 
ENP,ioos.station.NOAA.NDBC:HCEF1:1,2019-03-07T06:00:00Z,25.2540,-80.4440,1.0,22.38,11111222 
ENP,ioos.station.NOAA.NDBC:HCEF1:1,2019-03-07T07:00:00Z,25.2540,-80.4440,1.0,21.9,11111222 
ENP,ioos.station.NOAA.NDBC:HCEF1:1,2019-03-07T08:00:00Z,25.2540,-80.4440,1.0,21.64,11111222 
ENP,ioos.station.NOAA.NDBC:HCEF1:1,2019-03-07T09:00:00Z,25.2540,-80.4440,1.0,21.34,11111222 
ENP,ioos.station.NOAA.NDBC:HCEF1:1,2019-03-07T10:00:00Z,25.2540,-80.4440,1.0,21.03,11111222 
ENP,ioos.station.NOAA.NDBC:HCEF1:1,2019-03-07T11:00:00Z,25.2540,-80.4440,1.0,20.67,11111222 
ENP,ioos.station.NOAA.NDBC:HCEF1:1,2019-03-07T12:00:00Z,25.2540,-80.4440,1.0,20.49,11111222 
ENP,ioos.station.NOAA.NDBC:HCEF1:1,2019-03-07T13:00:00Z,25.2540,-80.4440,1.0,20.41,11111222 
ENP,ioos.station.NOAA.NDBC:HCEF1:1,2019-03-07T14:00:00Z,25.2540,-80.4440,1.0,20.24,11111222 
ENP,ioos.station.NOAA.NDBC:HCEF1:1,2019-03-07T15:00:00Z,25.2540,-80.4440,1.0,20.32,11111222 
ENP,ioos.station.NOAA.NDBC:HCEF1:1,2019-03-07T16:00:00Z,25.2540,-80.4440,1.0,20.76,11111222 
ENP,ioos.station.NOAA.NDBC:HCEF1:1,2019-03-07T17:00:00Z,25.2540,-80.4440,1.0,21.34,11111222 
ENP,ioos.station.NOAA.NDBC:HCEF1:1,2019-03-07T18:00:00Z,25.2540,-80.4440,1.0,22.0,11111222 
ENP,ioos.station.NOAA.NDBC:HCEF1:1,2019-03-07T19:00:00Z,25.2540,-80.4440,1.0,22.63,11111222 
ENP,ioos.station.NOAA.NDBC:HCEF1:1,2019-03-07T20:00:00Z,25.2540,-80.4440,1.0,23.09,11111222 
ENP,ioos.station.NOAA.NDBC:HCEF1:1,2019-03-07T21:00:00Z,25.2540,-80.4440,1.0,23.41,11111222 
ENP,ioos.station.NOAA.NDBC:HCEF1:1,2019-03-07T22:00:00Z,25.2540,-80.4440,1.0,23.52,11111222 
ENP,ioos.station.NOAA.NDBC:HCEF1:1,2019-03-07T23:00:00Z,25.2540,-80.4440,1.0,23.16,11111222 
ENP,ioos.station.NOAA.NDBC:HCEF1:1,2019-03-08T00:00:00Z,25.2540,-80.4440,1.0,22.86,11111222 
ENP,ioos.station.NOAA.NDBC:HCEF1:1,2019-03-08T01:00:00Z,25.2540,-80.4440,1.0,22.65,11111222 
ENP,ioos.station.NOAA.NDBC:HCEF1:1,2019-03-08T02:00:00Z,25.2540,-80.4440,1.0,22.57,11111222 
ENP,ioos.station.NOAA.NDBC:HCEF1:1,2019-03-08T04:00:00Z,25.2540,-80.4440,1.0,22.31,11111222 
ENP,ioos.station.NOAA.NDBC:HCEF1:1,2019-03-08T05:00:00Z,25.2540,-80.4440,1.0,22.12,11111222 
ENP,ioos.station.NOAA.NDBC:HCEF1:1,2019-03-08T06:00:00Z,25.2540,-80.4440,1.0,21.91,11111222 
ENP,ioos.station.NOAA.NDBC:HCEF1:1,2019-03-08T07:00:00Z,25.2540,-80.4440,1.0,21.74,11111222 
ENP,ioos.station.NOAA.NDBC:HCEF1:1,2019-03-08T08:00:00Z,25.2540,-80.4440,1.0,21.5,11111222 
ENP,ioos.station.NOAA.NDBC:HCEF1:1,2019-03-08T09:00:00Z,25.2540,-80.4440,1.0,21.37,11111222 
ENP,ioos.station.NOAA.NDBC:HCEF1:1,2019-03-08T10:00:00Z,25.2540,-80.4440,1.0,21.37,11111222 
ENP,ioos.station.NOAA.NDBC:HCEF1:1,2019-03-08T11:00:00Z,25.2540,-80.4440,1.0,21.49,11111222 
ENP,ioos.station.NOAA.NDBC:HCEF1:1,2019-03-08T12:00:00Z,25.2540,-80.4440,1.0,21.34,11111222 
ENP,ioos.station.NOAA.NDBC:HCEF1:1,2019-03-08T14:00:00Z,25.2540,-80.4440,1.0,21.33,11111222 
ENP,ioos.station.NOAA.NDBC:HCEF1:1,2019-03-08T15:00:00Z,25.2540,-80.4440,1.0,21.62,11111222 
ENP,ioos.station.NOAA.NDBC:HCEF1:1,2019-03-08T16:00:00Z,25.2540,-80.4440,1.0,21.92,11111222 
ENP,ioos.station.NOAA.NDBC:HCEF1:1,2019-03-08T18:00:00Z,25.2540,-80.4440,1.0,22.81,11111222 
ENP,ioos.station.NOAA.NDBC:HCEF1:1,2019-03-08T19:00:00Z,25.2540,-80.4440,1.0,23.7,11111222 
ENP,ioos.station.NOAA.NDBC:HCEF1:1,2019-03-08T20:00:00Z,25.2540,-80.4440,1.0,24.09,11111222 
ENP,ioos.station.NOAA.NDBC:HCEF1:1,2019-03-08T21:00:00Z,25.2540,-80.4440,1.0,24.46,11111222 
ENP,ioos.station.NOAA.NDBC:HCEF1:1,2019-03-08T22:00:00Z,25.2540,-80.4440,1.0,24.66,11111222 
ENP,ioos.station.NOAA.NDBC:HCEF1:1,2019-03-08T23:00:00Z,25.2540,-80.4440,1.0,24.6,11111222 
ENP,ioos.station.NOAA.NDBC:HCEF1:1,2019-03-09T00:00:00Z,25.2540,-80.4440,1.0,24.41,11111222 
ENP,ioos.station.NOAA.NDBC:HCEF1:1,2019-03-09T02:00:00Z,25.2540,-80.4440,1.0,24.17,11111222 
ENP,ioos.station.NOAA.NDBC:HCEF1:1,2019-03-09T04:00:00Z,25.2540,-80.4440,1.0,24.16,11111222 
ENP,ioos.station.NOAA.NDBC:HCEF1:1,2019-03-09T05:00:00Z,25.2540,-80.4440,1.0,24.04,11111222 
ENP,ioos.station.NOAA.NDBC:HCEF1:1,2019-03-09T06:00:00Z,25.2540,-80.4440,1.0,23.9,11111222 
ENP,ioos.station.NOAA.NDBC:HCEF1:1,2019-03-09T07:00:00Z,25.2540,-80.4440,1.0,23.78,11111222 
ENP,ioos.station.NOAA.NDBC:HCEF1:1,2019-03-09T08:00:00Z,25.2540,-80.4440,1.0,23.69,11111222 
ENP,ioos.station.NOAA.NDBC:HCEF1:1,2019-03-09T09:00:00Z,25.2540,-80.4440,1.0,23.59,11111222 
ENP,ioos.station.NOAA.NDBC:HCEF1:1,2019-03-09T10:00:00Z,25.2540,-80.4440,1.0,23.56,11111222 
ENP,ioos.station.NOAA.NDBC:HCEF1:1,2019-03-09T11:00:00Z,25.2540,-80.4440,1.0,23.5,11111222 
ENP,ioos.station.NOAA.NDBC:HCEF1:1,2019-03-09T12:00:00Z,25.2540,-80.4440,1.0,23.41,11111222 
ENP,ioos.station.NOAA.NDBC:HCEF1:1,2019-03-09T13:00:00Z,25.2540,-80.4440,1.0,23.3,11111222 
ENP,ioos.station.NOAA.NDBC:HCEF1:1,2019-03-09T14:00:00Z,25.2540,-80.4440,1.0,23.39,11111222 
ENP,ioos.station.NOAA.NDBC:HCEF1:1,2019-03-09T15:00:00Z,25.2540,-80.4440,1.0,23.73,11111222 
ENP,ioos.station.NOAA.NDBC:HCEF1:1,2019-03-09T16:00:00Z,25.2540,-80.4440,1.0,24.17,11111222 
ENP,ioos.station.NOAA.NDBC:HCEF1:1,2019-03-09T17:00:00Z,25.2540,-80.4440,1.0,24.78,11111222 
ENP,ioos.station.NOAA.NDBC:HCEF1:1,2019-03-09T18:00:00Z,25.2540,-80.4440,1.0,25.37,11111222 
ENP,ioos.station.NOAA.NDBC:HCEF1:1,2019-03-09T19:00:00Z,25.2540,-80.4440,1.0,25.88,11111222 
ENP,ioos.station.NOAA.NDBC:HCEF1:1,2019-03-09T20:00:00Z,25.2540,-80.4440,1.0,26.05,11111222 
ENP,ioos.station.NOAA.NDBC:HCEF1:1,2019-03-09T21:00:00Z,25.2540,-80.4440,1.0,26.18,11111222 
ENP,ioos.station.NOAA.NDBC:HCEF1:1,2019-03-09T22:00:00Z,25.2540,-80.4440,1.0,26.23,11111222 
ENP,ioos.station.NOAA.NDBC:HCEF1:1,2019-03-09T23:00:00Z,25.2540,-80.4440,1.0,26.22,11111222 
ENP,ioos.station.NOAA.NDBC:HCEF1:1,2019-03-10T00:00:00Z,25.2540,-80.4440,1.0,26.12,11111222 
ENP,ioos.station.NOAA.NDBC:HCEF1:1,2019-03-10T02:00:00Z,25.2540,-80.4440,1.0,25.72,11111222 
ENP,ioos.station.NOAA.NDBC:HCEF1:1,2019-03-10T04:00:00Z,25.2540,-80.4440,1.0,25.62,11111222 
ENP,ioos.station.NOAA.NDBC:HCEF1:1,2019-03-10T05:00:00Z,25.2540,-80.4440,1.0,25.5,11111222 
ENP,ioos.station.NOAA.NDBC:HCEF1:1,2019-03-10T06:00:00Z,25.2540,-80.4440,1.0,25.44,11111222 
ENP,ioos.station.NOAA.NDBC:HCEF1:1,2019-03-10T07:00:00Z,25.2540,-80.4440,1.0,25.34,11111222 
ENP,ioos.station.NOAA.NDBC:HCEF1:1,2019-03-10T08:00:00Z,25.2540,-80.4440,1.0,25.19,11111222 
ENP,ioos.station.NOAA.NDBC:HCEF1:1,2019-03-10T09:00:00Z,25.2540,-80.4440,1.0,25.07,11111222 
ENP,ioos.station.NOAA.NDBC:HCEF1:1,2019-03-10T10:00:00Z,25.2540,-80.4440,1.0,24.99,11111222 
ENP,ioos.station.NOAA.NDBC:HCEF1:1,2019-03-10T11:00:00Z,25.2540,-80.4440,1.0,24.89,11111222 
ENP,ioos.station.NOAA.NDBC:HCEF1:1,2019-03-10T12:00:00Z,25.2540,-80.4440,1.0,24.81,11111222 
ENP,ioos.station.NOAA.NDBC:HCEF1:1,2019-03-10T13:00:00Z,25.2540,-80.4440,1.0,24.82,11111222 
ENP,ioos.station.NOAA.NDBC:HCEF1:1,2019-03-10T14:00:00Z,25.2540,-80.4440,1.0,24.88,11111222 
ENP,ioos.station.NOAA.NDBC:HCEF1:1,2019-03-10T15:00:00Z,25.2540,-80.4440,1.0,25.1,11111222 
ENP,ioos.station.NOAA.NDBC:HCEF1:1,2019-03-10T16:00:00Z,25.2540,-80.4440,1.0,25.46,11111222 
ENP,ioos.station.NOAA.NDBC:HCEF1:1,2019-03-10T17:00:00Z,25.2540,-80.4440,1.0,25.95,11111222 
ENP,ioos.station.NOAA.NDBC:HCEF1:1,2019-03-10T18:00:00Z,25.2540,-80.4440,1.0,26.44,11111222 
ENP,ioos.station.NOAA.NDBC:HCEF1:1,2019-03-10T19:00:00Z,25.2540,-80.4440,1.0,27.12,11111222 
ENP,ioos.station.NOAA.NDBC:HCEF1:1,2019-03-10T20:00:00Z,25.2540,-80.4440,1.0,27.61,11111222 
ENP,ioos.station.NOAA.NDBC:HCEF1:1,2019-03-11T03:00:00Z,25.2540,-80.4440,1.0,27.13,11111222 
ENP,ioos.station.NOAA.NDBC:HCEF1:1,2019-03-11T04:00:00Z,25.2540,-80.4440,1.0,26.96,11111222 
ENP,ioos.station.NOAA.NDBC:HCEF1:1,2019-03-11T05:00:00Z,25.2540,-80.4440,1.0,26.85,11111222 
ENP,ioos.station.NOAA.NDBC:HCEF1:1,2019-03-11T06:00:00Z,25.2540,-80.4440,1.0,26.7,11111222 
ENP,ioos.station.NOAA.NDBC:HCEF1:1,2019-03-11T07:00:00Z,25.2540,-80.4440,1.0,26.51,11111222 
ENP,ioos.station.NOAA.NDBC:HCEF1:1,2019-03-11T08:00:00Z,25.2540,-80.4440,1.0,26.29,11111222 
ENP,ioos.station.NOAA.NDBC:HCEF1:1,2019-03-11T09:00:00Z,25.2540,-80.4440,1.0,26.16,11111222 
ENP,ioos.station.NOAA.NDBC:HCEF1:1,2019-03-11T10:00:00Z,25.2540,-80.4440,1.0,26.05,11111222 
ENP,ioos.station.NOAA.NDBC:HCEF1:1,2019-03-11T11:00:00Z,25.2540,-80.4440,1.0,25.94,11111222 
ENP,ioos.station.NOAA.NDBC:HCEF1:1,2019-03-11T12:00:00Z,25.2540,-80.4440,1.0,25.78,11111222 
ENP,ioos.station.NOAA.NDBC:HCEF1:1,2019-03-11T13:00:00Z,25.2540,-80.4440,1.0,25.7,11111222 
ENP,ioos.station.NOAA.NDBC:HCEF1:1,2019-03-11T14:00:00Z,25.2540,-80.4440,1.0,25.77,11111222 
ENP,ioos.station.NOAA.NDBC:HCEF1:1,2019-03-11T15:00:00Z,25.2540,-80.4440,1.0,26.03,11111222 
ENP,ioos.station.NOAA.NDBC:HCEF1:1,2019-03-11T16:00:00Z,25.2540,-80.4440,1.0,26.47,11111222 
ENP,ioos.station.NOAA.NDBC:HCEF1:1,2019-03-11T17:00:00Z,25.2540,-80.4440,1.0,27.04,11111222 
ENP,ioos.station.NOAA.NDBC:HCEF1:1,2019-03-11T18:00:00Z,25.2540,-80.4440,1.0,27.7,11111222 
ENP,ioos.station.NOAA.NDBC:HCEF1:1,2019-03-11T19:00:00Z,25.2540,-80.4440,1.0,28.26,11111222 
ENP,ioos.station.NOAA.NDBC:HCEF1:1,2019-03-11T20:00:00Z,25.2540,-80.4440,1.0,28.78,11111222 
ENP,ioos.station.NOAA.NDBC:HCEF1:1,2019-03-11T21:00:00Z,25.2540,-80.4440,1.0,29.13,11111222 
ENP,ioos.station.NOAA.NDBC:HCEF1:1,2019-03-11T22:00:00Z,25.2540,-80.4440,1.0,29.4,11111222 
ENP,ioos.station.NOAA.NDBC:HCEF1:1,2019-03-11T23:00:00Z,25.2540,-80.4440,1.0,29.49,11111222 
ENP,ioos.station.NOAA.NDBC:HCEF1:1,2019-03-12T01:00:00Z,25.2540,-80.4440,1.0,28.96,11111222 
ENP,ioos.station.NOAA.NDBC:HCEF1:1,2019-03-12T03:00:00Z,25.2540,-80.4440,1.0,28.38,11111222 
ENP,ioos.station.NOAA.NDBC:HCEF1:1,2019-03-12T04:00:00Z,25.2540,-80.4440,1.0,28.26,11111222 
ENP,ioos.station.NOAA.NDBC:HCEF1:1,2019-03-12T05:00:00Z,25.2540,-80.4440,1.0,28.1,11111222 
ENP,ioos.station.NOAA.NDBC:HCEF1:1,2019-03-12T06:00:00Z,25.2540,-80.4440,1.0,27.94,11111222 
ENP,ioos.station.NOAA.NDBC:HCEF1:1,2019-03-12T07:00:00Z,25.2540,-80.4440,1.0,27.87,11111222 
ENP,ioos.station.NOAA.NDBC:HCEF1:1,2019-03-12T08:00:00Z,25.2540,-80.4440,1.0,27.71,11111222 
ENP,ioos.station.NOAA.NDBC:HCEF1:1,2019-03-12T09:00:00Z,25.2540,-80.4440,1.0,27.56,11111222 
ENP,ioos.station.NOAA.NDBC:HCEF1:1,2019-03-12T10:00:00Z,25.2540,-80.4440,1.0,27.31,11111222 
ENP,ioos.station.NOAA.NDBC:HCEF1:1,2019-03-12T11:00:00Z,25.2540,-80.4440,1.0,27.3,11111222 
ENP,ioos.station.NOAA.NDBC:HCEF1:1,2019-03-12T12:00:00Z,25.2540,-80.4440,1.0,27.33,11111222 
ENP,ioos.station.NOAA.NDBC:HCEF1:1,2019-03-12T13:00:00Z,25.2540,-80.4440,1.0,27.3,11111222 
ENP,ioos.station.NOAA.NDBC:HCEF1:1,2019-03-12T14:00:00Z,25.2540,-80.4440,1.0,27.28,11111222 
ENP,ioos.station.NOAA.NDBC:HCEF1:1,2019-03-12T15:00:00Z,25.2540,-80.4440,1.0,27.33,11111222 
ENP,ioos.station.NOAA.NDBC:HCEF1:1,2019-03-12T16:00:00Z,25.2540,-80.4440,1.0,27.49,11111222 
ENP,ioos.station.NOAA.NDBC:HCEF1:1,2019-03-12T17:00:00Z,25.2540,-80.4440,1.0,27.89,11111222 
ENP,ioos.station.NOAA.NDBC:HCEF1:1,2019-03-12T18:00:00Z,25.2540,-80.4440,1.0,28.29,11111222 
ENP,ioos.station.NOAA.NDBC:HCEF1:1,2019-03-12T19:00:00Z,25.2540,-80.4440,1.0,28.59,11111222 
ENP,ioos.station.NOAA.NDBC:HCEF1:1,2019-03-12T20:00:00Z,25.2540,-80.4440,1.0,29.09,11111222 